Regional Weather Roundup
Issued by NWS

Home | Current Version | Previous Version | Text Only | Print | Product List | Glossary Off
Versions: 1 2 3 4 5 6 7 8 9 10 11 12 13 14 15 16 17 18 19 20 21 22 23 24 25 26 27 28 29 30 31 32 33 34 35 36 37 38 39 40 41 42 43 44 45 46 47 48 49 50

000
ASUS45 KCYS 290710
RWRWY

WYOMING REGIONAL WEATHER ROUNDUP
NATIONAL WEATHER SERVICE CHEYENNE WY
100 AM MDT WED JUL 29 2015

NOTE:  "FAIR" INDICATES FEW OR NO CLOUDS BELOW 12,000 FEET
WITH NO SIGNIFICANT WEATHER AND/OR OBSTRUCTIONS TO VISIBILITY.

WYZ001-290800-
YELLOWSTONE NATIONAL PARK

CITY           SKY/WX    TMP DP  RH WIND       PRES   REMARKS
LK YELLOWSTONE   N/A     31  28  89 NW3       30.47S
W YELLOWSTONE  NOT AVBL

$$
WYZ002>013-054>058-071-098>099-290800-
NORTHERN WYOMING

CITY           SKY/WX    TMP DP  RH WIND       PRES   REMARKS
JACKSON        FAIR      39  34  81 N7        30.41S WCI  34
CODY           FAIR      55  32  41 SW6       30.31S
GREYBULL       FAIR      54  36  50 W5        30.25R
WORLAND        FAIR      51  31  46 CALM      30.26R
SHERIDAN       FAIR      57  34  41 W10       30.24S
BUFFALO        FAIR      54  34  46 W7        30.29S
GILLETTE       FAIR      51  35  54 W9        30.25R
HULETT         FAIR      52  36  54 S7        30.24S
NEWCASTLE      FAIR      50  34  53 CALM      30.27R

$$
WYZ014>020-022>026-101>103-290800-
CENTRAL WYOMING

CITY           SKY/WX    TMP DP  RH WIND       PRES   REMARKS
BIG PINEY      FAIR      42  28  57 VRB5      30.42R
PINEDALE       FAIR      39  32  75 NW5       30.42S
DUBOIS         FAIR      41  28  60 NW14      30.42S
LANDER         FAIR      54  30  40 W12       30.33S
RIVERTON       FAIR      53  27  36 W8        30.34R
CASPER         FAIR      50  29  44 NE10      30.33R
DOUGLAS        FAIR      49  31  49 CALM      30.33R

$$
WYZ021-027>030-104>119-290800-
SOUTHERN WYOMING

CITY           SKY/WX    TMP DP  RH WIND       PRES   REMARKS
EVANSTON       FAIR      52  28  39 N5        30.41S
KEMMERER       FAIR      45  32  61 NW10      30.42R
FORT BRIDGER   SUNNY     52  23  32 W7        30.43S
ROCK SPRINGS   FAIR      53  20  27 CALM      30.37R
DIXON          FAIR      47  24  40 E6        30.38R
RAWLINS        FAIR      44  15  31 N6        30.36S
SARATOGA       FAIR      45  23  42 SE5       30.39R
LARAMIE        FAIR      57  23  26 E9        30.39S
CHEYENNE       FAIR      58  34  40 W8        30.34S
TORRINGTON     FAIR      55  38  52 W3        30.25S
PINE BLUFFS    FAIR      50  36  57 CALM      30.30R

$$


USA.gov is the U.S. government's official web portal to all federal, state and local government web resources and services.